Location: Lake Arresoe
(56.0000°N, 12.5000°E)
Time: 10:27:30
(UTC+02:00)

Resurs 1-4 Rocket - Pass Details

Date: 23 August 2020
Orbit: 799 x 815 km, 98.6° (Epoch: 23 September)

Event Time Altitude Azimuth Distance (km) Brightness Sun altitude
Rises 05:13:17 0° 11° (NNE) 3,329 6.0 -6.3°
Reaches altitude 10° 05:16:23 10° 353° (N) 2,392 4.9 -6.0°
Maximum altitude 05:19:40 17° 314° (NW) 1,936 3.9 -5.6°
Drops below altitude 10° 05:22:57 10° 275° (W) 2,381 4.1 -5.2°
Enters shadow 05:24:49 - 262° (W) 2,912 4.4 -4.9°
